Location: Brachstadt
(48.6975°N, 10.6755°E)
Time: 06:27:29
(UTC+00:00)

Cosmos 1536 Rocket - Pass Details

Date: 18 September 2020
Orbit: 606 x 632 km, 82.5° (Epoch: 27 October)

Event Time Altitude Azimuth Distance (km) Brightness Sun altitude
Rises 18:31:27 0° 355° (N) 2,914 7.3 -12.0°
Reaches altitude 10° 18:33:47 10° 3° (N) 2,007 6.4 -12.3°
Maximum altitude 18:38:01 42° 75° (ENE) 901 4.0 -13.0°
Enters shadow 18:41:15 16° 141° (SE) 1,643 5.2 -13.5°
